Date,TemperatureHighF,TemperatureAvgF,TemperatureLowF,DewpointHighF,DewpointAvgF,DewpointLowF,HumidityHigh,HumidityAvg,HumidityLow,PressureMaxIn,PressureMinIn,WindSpeedMaxMPH,WindSpeedAvgMPH,GustSpeedMaxMPH,PrecipitationSumIn
2013-1-5,39.3,27.1,21.8,25.8,21.7,19.0,91,81,53,30.27,30.19,2,0,0,0.12
2013-1-6,42.2,32.1,24.1,30.5,26.7,21.3,94,81,60,30.22,29.95,5,0,0,0.14
2013-1-8,45.6,34.8,24.9,31.5,27.4,22.9,93,76,53,30.40,30.31,5,0,0,0.06
2013-1-9,42.2,31.7,19.0,36.0,27.9,17.3,96,86,70,30.39,30.10,6,0,0,0.00
2013-1-10,45.5,35.7,27.1,32.3,25.9,23.5,95,70,43,30.56,30.18,8,1,0,0.00
2013-1-20,50.1,40.0,27.4,32.3,20.8,8.8,84,47,31,30.04,29.64,10,3,16,0.01
2013-1-21,30.0,25.1,17.2,22.2,14.1,7.7,91,64,45,30.08,29.81,9,1,0,0.00
2013-1-22,21.4,17.9,11.1,16.4,1.2,-99.9,93,52,35,30.18,29.80,12,2,14,0.00
2013-1-23,18.4,11.7,3.9,0.9,-4.8,-99.9,81,56,38,30.23,30.14,9,1,0,0.00
2013-1-24,20.9,10.9,0.8,3.6,-0.2,-2.4,86,63,36,30.37,30.16,12,2,15,0.00
2013-1-25,22.1,15.0,4.9,15.8,6.1,1.2,90,69,43,30.41,30.07,5,0,0,0.00
2013-1-26,25.4,16.4,7.2,13.7,8.0,4.2,92,71,46,30.37,30.06,10,1,13,0.00
2013-1-27,31.1,9.6,3.5,13.3,4.4,0.3,91,81,37,30.52,30.35,5,0,0,0.01
2013-2-6,30.3,26.9,21.4,14.8,10.6,6.0,62,50,39,30.36,30.25,5,1,0,0.00
2013-2-7,32.3,24.1,14.6,18.4,10.7,4.5,83,58,35,30.52,30.35,5,1,0,0.00
2013-2-8,32.4,29.6,25.2,29.9,25.2,18.4,94,84,64,30.37,29.71,7,2,0,0.00
2013-2-9,28.5,24.4,15.5,24.2,14.0,3.8,94,67,35,30.35,29.78,17,3,19,0.00
2013-2-10,31.7,15.6,-1.9,14.6,5.9,-5.0,91,68,35,30.51,30.33,5,0,0,0.00
2013-2-11,38.9,33.0,18.2,38.1,31.4,14.2,98,94,82,30.34,29.68,4,0,0,0.00
2013-2-12,43.2,37.8,33.0,34.9,29.4,25.3,98,73,56,29.95,29.69,9,1,13,0.00
2013-2-13,42.7,34.6,22.9,27.5,24.6,20.4,93,68,46,29.94,29.72,5,1,0,0.00
2013-3-2,38.0,34.2,29.0,27.2,25.8,24.8,86,71,62,29.77,29.69,6,2,0,0.00
2013-3-3,36.5,30.3,27.4,27.1,22.7,18.5,87,74,56,29.75,29.68,9,2,0,0.00
2013-3-4,40.3,32.8,27.7,24.1,21.2,18.3,75,63,50,29.90,29.74,11,2,13,0.00
2013-3-5,44.3,35.2,24.3,28.3,25.6,20.8,90,69,50,30.04,29.90,8,1,12,0.00
2013-3-6,43.7,38.3,32.8,36.8,30.7,27.7,84,74,62,30.03,29.93,12,2,17,0.00
2013-3-7,37.3,34.2,31.0,31.8,29.8,26.8,95,84,68,30.12,29.99,11,2,12,0.00
2013-3-8,31.1,30.9,30.8,29.8,29.6,29.5,95,95,95,30.07,30.06,0,0,0,0.00
2013-3-21,31.4,30.9,30.2,16.6,15.8,14.7,54,53,52,29.72,29.71,5,2,0,0.00
2013-3-22,30.1,26.5,24.8,17.7,16.8,14.6,74,67,52,29.73,29.72,2,0,0,0.00
2013-3-24,44.2,37.4,22.1,26.2,24.0,19.1,92,60,44,29.94,29.73,8,2,0,0.00
2013-3-25,31.6,30.8,30.5,26.5,26.0,25.3,85,82,78,29.74,29.67,1,0,0,0.00
2013-3-26,33.8,30.2,27.4,25.4,24.2,22.9,84,78,71,29.85,29.82,1,0,0,0.00
2013-3-27,50.8,36.7,21.3,30.3,24.5,19.3,96,66,34,29.96,29.84,8,1,12,0.00
2013-3-28,47.3,37.9,29.9,35.8,30.5,24.8,91,75,58,30.02,29.95,7,1,0,0.00
2013-3-30,58.0,45.1,26.6,34.3,25.4,19.2,96,51,23,30.16,30.04,8,1,0,0.00
2013-3-31,30.8,27.0,25.0,24.2,22.9,22.1,90,85,76,30.13,30.08,1,0,0,0.00
2013-4-8,65.8,60.8,57.2,44.0,43.0,40.2,60,52,40,30.02,29.97,4,0,0,0.00
2013-4-9,74.5,59.9,48.1,52.7,45.7,39.1,92,63,29,29.98,29.89,11,1,18,0.00
2013-4-10,64.9,55.3,48.3,55.8,50.7,44.6,97,85,66,29.97,29.80,10,1,17,0.04
2013-4-11,55.6,48.3,38.5,54.8,40.2,29.8,97,75,53,30.09,29.80,9,2,0,0.00
2013-4-12,42.7,40.7,38.1,39.0,36.0,31.8,91,83,74,30.08,29.77,7,1,0,0.00
2013-4-22,57.7,56.4,53.8,29.5,26.6,23.5,36,32,27,30.64,30.52,8,2,0,0.00
2013-5-9,63.5,59.9,53.6,60.5,57.7,52.5,97,93,82,29.94,29.88,2,0,0,0.96
2013-5-10,53.6,49.7,47.3,52.5,48.7,46.5,97,97,96,29.95,29.92,0,0,0,0.00
2013-5-14,58.7,48.1,30.4,38.7,32.3,25.3,97,60,28,30.13,30.00,5,1,0,0.12
2013-5-15,67.0,51.2,33.5,55.6,44.9,32.0,97,81,53,30.07,29.65,7,1,0,0.03
2013-5-16,81.7,63.7,44.7,57.8,46.2,38.9,98,62,22,29.83,29.69,9,1,0,0.01
2013-5-17,53.1,50.4,49.0,47.7,46.6,45.8,89,87,81,29.87,29.83,2,0,0,0.00
2013-5-22,80.1,70.9,62.5,71.2,65.9,59.4,95,85,72,29.90,29.80,3,1,0,0.02
2013-5-23,72.6,68.0,64.6,69.8,66.7,63.2,98,96,89,29.86,29.73,2,0,0,1.60
2013-5-24,65.5,55.3,43.8,65.1,54.2,41.8,99,96,91,29.96,29.65,5,0,0,0.62
2013-5-25,48.4,45.9,43.7,47.0,43.2,39.5,97,90,78,29.96,29.89,8,1,0,0.32
2013-5-26,61.4,52.8,42.9,44.2,40.6,35.5,91,65,41,30.17,29.89,12,1,16,0.00
2013-5-27,73.1,55.6,37.0,47.4,41.4,35.7,98,65,28,30.23,30.09,4,0,0,0.00
2013-5-28,68.3,55.0,43.1,56.9,50.3,41.8,98,86,48,30.22,30.13,1,0,0,0.13
2013-5-29,78.8,66.4,56.9,72.2,63.5,56.1,99,91,76,30.14,29.96,2,0,0,0.07
2013-5-30,88.1,74.0,61.3,72.6,67.2,60.4,98,82,51,30.10,30.02,4,0,0,0.00
2013-5-31,89.7,75.9,61.8,72.6,66.3,60.9,98,76,44,30.11,29.95,2,0,0,0.00
2013-6-1,88.2,75.1,60.5,72.5,67.2,59.4,98,79,54,29.99,29.86,5,0,0,0.00
2013-6-2,85.2,77.1,69.4,73.6,69.2,67.0,94,78,61,29.88,29.72,5,0,0,0.00
2013-6-3,75.1,69.3,59.2,69.4,63.8,50.1,98,83,59,29.91,29.76,4,0,0,0.78
2013-6-4,73.2,60.0,45.7,52.2,47.1,41.6,97,67,33,30.12,29.90,4,0,0,0.00
2013-6-5,72.8,59.8,44.5,53.6,48.8,43.2,98,70,42,30.22,30.09,2,0,0,0.00
2013-6-6,69.7,59.4,49.3,57.4,53.1,47.5,96,81,58,30.16,30.01,3,0,0,0.11
2013-6-7,60.9,58.5,55.6,60.0,57.5,54.3,97,97,95,30.03,29.69,3,0,0,1.40
2013-6-8,74.1,63.4,55.1,65.5,59.4,54.5,98,87,70,30.05,29.65,3,0,0,0.24
2013-6-9,77.0,66.2,53.7,62.3,58.6,52.8,98,79,53,30.16,30.05,3,0,0,0.00
2013-6-10,70.6,62.0,57.3,66.1,60.3,56.2,97,95,83,30.17,29.84,3,0,0,0.55
2013-6-11,72.9,65.8,60.1,70.9,63.5,57.0,99,93,74,29.84,29.58,4,0,0,0.33
2013-6-12,73.3,65.3,55.6,59.7,55.8,53.1,94,72,52,29.84,29.66,7,0,0,0.00
2013-6-13,58.8,56.0,51.6,57.9,54.9,50.4,98,96,93,29.83,29.56,1,0,0,1.08
2013-6-14,73.3,59.8,51.7,60.9,55.2,50.9,98,86,53,29.86,29.60,0,0,0,0.47
2013-6-17,84.4,71.8,58.4,68.3,63.1,57.0,98,77,43,29.90,29.80,4,0,0,0.00
2013-6-18,79.4,65.8,57.9,70.0,61.8,56.8,98,87,66,29.92,29.82,4,0,0,0.00
2013-6-19,72.1,63.0,53.3,57.0,52.4,46.1,93,71,41,30.17,29.91,5,0,0,0.00
2013-6-20,77.0,63.5,46.8,60.6,53.4,45.4,98,73,44,30.27,30.16,4,0,0,0.00
2013-6-21,73.3,62.8,55.4,64.1,57.6,53.6,94,84,73,30.26,30.21,0,0,0,0.00
2013-6-22,82.2,71.0,57.8,68.2,61.3,56.1,95,73,52,30.24,30.09,4,0,0,0.00
2013-6-23,87.2,75.8,63.2,71.8,66.5,58.7,91,74,51,30.16,30.01,4,0,0,0.00
2013-6-24,88.8,75.7,67.5,74.9,70.1,66.6,97,84,57,30.04,29.91,5,0,0,0.52
2013-6-25,85.5,73.6,64.7,74.6,69.4,64.1,98,88,63,29.99,29.77,4,0,0,0.54
2013-7-11,79.0,78.8,78.8,71.9,71.3,71.3,79,78,78,29.84,29.84,0,0,0,0.01
2013-7-12,79.0,78.7,78.1,69.7,68.7,67.5,74,72,69,30.05,30.04,2,0,0,0.00
2013-7-25,67.5,65.7,64.8,63.4,61.6,57.5,93,87,75,30.06,30.04,1,0,0,0.00
2013-7-26,78.2,68.4,62.5,66.8,62.1,57.8,94,81,60,30.04,29.98,3,0,0,0.00
2013-7-27,80.8,69.8,57.2,67.4,62.5,56.1,98,80,55,30.05,29.94,3,0,0,0.00
2013-7-28,75.3,68.8,63.8,70.9,66.4,62.1,98,92,78,29.99,29.90,3,0,0,0.12
2013-7-29,80.6,71.4,62.4,70.4,64.7,56.9,99,81,49,30.09,29.95,4,0,0,0.00
2013-7-30,77.0,66.4,54.9,62.9,59.1,53.8,98,79,54,30.16,30.08,4,0,0,0.00
2013-7-31,78.5,67.3,55.4,65.4,60.2,54.3,98,80,50,30.17,30.02,4,0,0,0.00
2013-8-1,73.8,65.9,61.7,67.4,64.0,60.3,98,94,76,30.03,29.83,3,0,0,0.13
2013-8-2,79.5,70.5,64.3,67.5,65.0,61.8,98,84,56,29.89,29.78,4,0,0,0.11
2013-8-3,78.2,68.8,62.6,67.6,64.0,60.3,95,85,66,29.89,29.81,5,0,0,0.00
2013-8-4,76.7,64.5,55.4,64.3,58.7,53.7,98,83,51,29.97,29.83,5,0,0,0.08
2013-8-5,75.1,62.0,49.6,56.9,51.9,47.8,98,73,40,30.06,29.96,4,0,0,0.00
2013-8-6,77.3,63.7,48.8,62.4,55.7,47.4,98,78,50,30.12,30.04,4,0,0,0.00
2013-8-7,75.4,67.3,57.7,67.0,62.1,56.3,97,84,69,30.15,30.04,4,0,0,0.00
2013-8-8,81.5,74.0,68.5,73.2,69.8,66.8,96,87,72,30.05,29.98,3,0,0,0.00
2013-8-9,79.4,73.4,70.1,76.9,72.2,69.5,99,96,90,29.99,29.77,7,0,0,3.19
2013-8-10,80.8,70.3,59.6,70.2,63.7,56.9,99,82,48,30.05,29.84,5,0,0,0.00
2013-8-11,76.3,64.4,51.5,65.2,57.8,50.4,98,81,53,30.13,30.00,3,0,0,0.00
2013-8-12,78.8,68.2,58.4,65.9,61.5,56.9,98,81,53,30.03,29.91,2,0,0,0.00
2013-8-13,73.6,68.5,64.6,70.5,67.0,62.8,98,95,87,29.92,29.67,4,0,0,0.15
2013-8-14,71.8,63.4,53.5,64.3,55.8,51.9,98,78,53,30.03,29.74,8,0,0,0.00
2013-8-15,73.4,60.3,48.4,61.2,54.0,47.3,98,82,47,30.14,30.03,4,0,0,0.00
2013-8-16,75.7,62.8,51.5,62.7,56.2,50.4,98,81,46,30.20,30.12,3,0,0,0.00
2013-8-17,77.5,64.5,52.2,66.2,58.5,51.1,98,83,49,30.29,30.20,3,0,0,0.00
2013-8-18,74.3,65.4,57.7,68.3,62.5,56.6,98,91,74,30.27,30.12,2,0,0,0.00
2013-8-19,75.8,67.5,57.9,69.3,63.6,57.1,99,88,73,30.12,30.00,1,0,0,0.00
2013-8-20,80.9,69.0,57.2,68.6,63.2,56.4,98,84,53,30.12,30.04,3,0,0,0.00
2013-8-21,82.9,69.7,57.4,69.9,63.8,56.5,98,83,53,30.18,30.03,4,0,0,0.00
2013-8-22,80.1,70.9,62.9,71.9,67.7,61.7,98,90,71,30.06,29.85,2,0,0,0.01
2013-8-23,76.8,68.7,55.9,68.4,61.3,53.8,98,79,50,30.14,29.87,5,0,0,0.01
2013-8-24,75.2,61.8,48.7,61.4,54.6,47.5,98,80,50,30.35,30.14,4,0,0,0.00
2013-8-25,58.7,51.7,48.7,58.1,50.5,47.6,98,96,94,30.40,30.33,0,0,0,0.00
2013-9-7,46.1,45.0,44.1,44.7,43.8,43.0,96,96,95,30.13,30.09,1,0,0,0.00
2013-9-22,63.2,57.2,51.4,50.9,46.9,43.1,78,69,58,29.92,29.76,3,0,0,0.25
2013-9-23,51.2,50.8,50.3,45.3,44.8,44.0,82,80,77,29.92,29.91,0,0,0,0.00
2013-9-25,64.8,54.7,49.2,57.5,28.0,-99.9,96,88,71,29.96,29.88,0,0,0,0.00
2013-9-26,66.7,55.8,49.2,54.6,51.1,47.5,98,85,59,30.13,29.96,3,0,0,0.00
2013-9-27,63.9,53.8,43.3,56.5,50.0,42.2,98,87,71,30.28,30.13,2,0,0,0.00
2013-10-7,66.3,65.3,64.3,64.8,63.7,62.3,95,95,94,29.83,29.79,3,0,0,0.34
2013-10-24,46.5,41.5,40.1,31.9,30.9,30.1,69,66,55,29.97,29.89,2,0,0,0.00
2013-10-25,51.6,49.2,41.2,33.0,31.7,30.3,65,51,47,30.12,29.97,7,1,0,0.00
2013-10-26,50.5,48.4,47.4,34.7,33.0,30.2,61,55,46,29.92,29.90,2,0,0,0.00
2013-10-27,53.4,53.4,53.4,31.5,31.5,31.5,43,43,43,29.95,29.95,0,0,0,0.00
2013-10-29,49.2,40.2,30.7,32.5,29.8,28.1,91,68,45,30.45,30.36,4,0,0,0.00
2013-10-30,54.1,46.6,33.5,46.5,40.0,31.4,92,78,67,30.34,30.18,4,0,0,0.00
2013-10-31,59.9,59.1,58.3,59.0,58.0,56.9,98,96,94,29.92,29.78,5,1,0,0.16
2013-11-1,65.9,52.7,58.7,61.9,37.2,-99.9,96,81,87,29.78,29.54,7,-138,0,0.04
2013-11-2,56.7,56.7,56.7,48.9,48.9,48.9,75,75,75,29.66,29.66,0,0,0,0.00
2013-11-8,42.2,41.3,38.6,32.9,30.9,29.4,72,67,61,30.12,30.06,7,1,0,0.00
2013-11-9,43.2,42.9,42.5,32.7,32.2,31.9,67,66,65,30.21,30.20,4,1,0,0.00
2013-11-15,54.5,42.4,31.5,27.2,26.7,25.3,82,57,32,30.23,30.15,1,0,0,0.00
2013-11-16,59.0,42.9,31.4,39.8,34.2,27.7,96,75,42,30.31,30.24,1,0,0,0.00
2013-11-17,59.0,52.2,43.3,57.9,50.5,42.5,97,94,90,30.26,29.96,0,0,0,0.00
2013-11-18,62.1,57.1,48.4,52.0,42.1,34.3,88,60,40,29.67,29.57,2,1,0,0.09
2013-11-19,47.5,44.2,40.4,28.8,26.5,24.2,52,50,48,30.07,29.75,7,4,0,0.00
2013-11-20,39.2,31.1,25.5,20.6,18.8,17.5,76,61,41,30.61,30.41,4,1,0,0.00
2013-11-21,48.6,37.6,17.1,36.9,31.7,14.9,91,80,50,30.65,30.43,0,0,0,0.00
2013-11-22,50.6,45.2,42.5,47.5,43.5,39.8,97,94,89,30.30,29.96,0,0,0,0.09
2013-11-23,52.1,40.5,34.1,47.7,28.6,20.5,85,63,46,30.02,29.88,1,0,0,0.00
2013-11-24,26.1,24.3,23.0,11.3,8.4,5.8,53,50,43,30.30,29.99,3,1,0,0.00
2013-11-25,33.1,30.1,18.3,16.7,14.4,9.2,69,52,47,30.43,30.32,4,1,0,0.00
2013-11-26,41.4,34.6,31.3,40.6,27.2,16.4,97,75,52,30.33,29.85,1,0,0,0.37
2013-11-27,50.6,44.1,40.7,50.1,42.8,39.4,98,95,94,29.49,29.33,4,1,0,1.40
2013-11-28,32.9,30.8,21.7,16.8,14.7,12.3,81,51,44,30.43,30.13,8,2,0,0.00
2013-11-29,33.6,26.1,18.0,22.4,19.2,15.8,91,76,58,30.75,30.49,5,0,0,0.00
2013-11-30,33.0,24.5,13.1,25.0,15.9,10.7,93,72,41,30.79,30.40,5,0,0,0.00
2013-12-1,43.6,35.2,27.2,33.6,29.3,24.3,93,79,64,30.40,30.02,3,0,0,0.00
2013-12-2,42.3,33.4,27.4,36.8,31.0,25.8,95,91,79,30.02,29.90,2,0,0,0.01
2013-12-3,39.8,30.2,25.3,36.5,28.9,23.8,97,95,87,30.03,29.90,2,0,0,0.00
2013-12-4,45.9,34.3,24.4,37.8,31.1,23.2,97,89,68,30.16,30.03,3,0,0,0.00
2013-12-5,55.4,49.8,40.4,53.4,48.4,37.6,98,95,89,30.15,29.93,5,0,0,0.08
2013-12-6,53.3,42.9,33.4,52.7,41.0,31.8,98,93,79,30.17,29.87,7,0,0,0.53
2013-12-7,38.4,32.3,25.8,33.0,28.9,21.5,97,88,59,30.53,30.11,6,0,0,0.08
2013-12-8,29.8,25.7,18.2,25.5,21.5,16.5,95,84,73,30.62,30.43,3,0,0,0.00
2013-12-9,34.5,31.4,27.4,33.7,30.0,24.9,97,95,90,30.43,29.96,3,0,0,0.00
2013-12-10,33.2,30.3,21.2,31.9,28.3,18.8,97,92,81,30.09,29.85,4,0,0,0.00
2013-12-11,30.7,25.6,20.5,22.3,18.8,16.1,90,76,66,30.29,30.09,6,1,0,0.00
2013-12-12,25.2,19.7,12.2,18.6,11.8,7.7,87,72,50,30.35,30.13,6,0,0,0.00
2013-12-13,32.3,21.3,18.4,18.5,10.3,8.5,68,62,55,30.36,30.08,5,1,0,0.00
2013-12-14,22.2,19.1,17.1,18.0,15.1,12.9,92,84,67,30.53,30.12,2,1,0,0.00
2013-12-15,33.8,28.0,23.6,30.8,24.3,21.5,94,86,69,29.79,29.58,5,1,0,0.00
2013-12-16,27.9,22.8,6.9,21.9,12.0,3.9,87,64,50,30.22,29.81,4,1,0,0.00
2013-12-17,19.4,12.7,2.1,17.4,10.2,-0.8,92,90,87,30.24,30.02,1,0,0,0.00
2013-12-18,34.0,24.4,13.4,26.0,19.1,10.8,91,81,64,30.14,29.97,2,0,0,0.09
2013-12-19,41.3,30.2,20.7,29.1,24.4,17.7,90,80,56,30.15,30.01,1,0,0,0.22
2013-12-20,51.3,35.7,28.9,35.3,30.6,26.9,93,83,53,30.08,29.94,0,0,0,0.28
2013-12-21,55.9,43.1,33.7,44.7,38.0,31.9,95,83,66,29.97,29.88,1,0,0,0.08
2013-12-22,66.1,55.7,38.1,60.0,53.1,37.3,97,92,80,29.93,29.77,1,0,0,0.10
2013-12-23,52.7,45.6,37.3,51.6,44.3,33.5,98,95,86,30.15,29.93,3,0,0,0.54
2013-12-24,34.0,29.0,23.8,27.3,23.2,17.1,93,79,64,30.31,30.13,2,1,0,0.00
2013-12-25,23.9,18.6,9.8,15.6,9.7,7.0,88,69,52,30.52,30.39,4,1,0,0.00
2013-12-26,31.9,26.7,23.0,26.2,22.4,16.6,92,84,75,30.42,30.16,0,0,0,0.01
2013-12-27,35.6,30.5,23.3,24.9,23.1,18.9,84,74,63,30.33,30.25,1,0,0,0.00
2013-12-28,47.2,31.7,20.3,31.1,25.6,18.9,96,81,51,30.24,30.07,3,0,0,0.00
2013-12-29,39.4,35.2,28.0,37.9,33.5,26.2,97,94,82,30.08,29.50,1,0,0,0.83
2013-12-30,40.6,31.1,18.6,36.3,26.5,11.4,97,83,68,30.22,29.67,8,1,0,0.01
2013-12-31,29.4,21.6,13.3,23.3,13.3,10.2,89,71,57,30.26,30.07,4,0,0,0.00
2014-1-1,29.5,24.9,19.4,21.1,15.6,11.0,75,67,56,30.39,30.33,0,0,0,0.00
2014-1-2,24.2,16.4,5.8,20.1,12.9,2.5,88,86,83,30.29,29.82,3,1,0,0.00